Location: ????????
(60.4333°N, 46.4710°E)
Time: 03:49:00
(UTC+00:00)

Cosmos 2297 - Pass Details

Date: 25 November 2020
Orbit: 835 x 860 km, 71.0° (Epoch: 19 January)

Event Time Altitude Azimuth Distance (km) Brightness Sun altitude
Rises 12:54:03 0° 314° (NW) 3,404 7.0 -5.9°
Reaches altitude 10° 12:56:35 10° 320° (NW) 2,470 6.2 -6.1°
Maximum altitude 13:02:05 50° 35° (NE) 1,073 3.9 -6.7°
Drops below altitude 10° 13:07:37 10° 111° (ESE) 2,477 5.8 -7.3°
Sets 13:10:09 0° 117° (ESE) 3,414 6.5 -7.6°
